Regional Weather Roundup
Issued by NWS

Home | Current Version | Previous Version | Graphics & Text | Print | Product List | Glossary On
Versions: 1 2 3 4 5 6 7 8 9 10 11 12 13 14 15 16 17 18 19 20 21 22 23 24 25 26 27 28 29 30 31 32 33 34 35 36 37 38 39 40 41 42 43 44 45 46 47 48 49 50
529
ASUS43 KMKX 052120
RWRWI

WISCONSIN REGIONAL WEATHER ROUNDUP
NATIONAL WEATHER SERVICE MILWAUKEE/SULLIVAN WI
300 PM CST FRI FEB 05 2016

NOTE: "FAIR" INDICATES FEW OR NO CLOUDS BELOW 12,000 FEET WITH NO
SIGNIFICANT WEATHER AND/OR OBSTRUCTIONS TO VISIBILITY.

WIZ001-002-006>008-014>016-023>028-052200-
NORTHWEST WISCONSIN

CITY           SKY/WX    TMP DP  RH WIND       PRES   REMARKS
SUPERIOR ARPT  MOSUNNY   28  14  54 SW10      30.17F WCI  19
ASHLAND        CLOUDY    28  11  48 S12       30.20F WCI  18
HAYWARD        CLOUDY    23  11  60 S12       30.20F WCI  12
SIREN          CLOUDY    26  13  57 S12       30.21F WCI  16
CUMBERLAND     CLOUDY    21  12  68 S8        30.22F WCI  12
RICE LAKE      CLOUDY    23  13  64 S7        30.26S WCI  14
CHETEK         CLOUDY    23  11  61 S5        30.25F WCI  17
LADYSMITH      CLOUDY    24  12  61 S8        30.26F WCI  15
EAU CLAIRE     PTSUNNY   24  12  60 S7        30.27F WCI  16
MENOMONIE      CLOUDY    28  15  57 SE7       30.27F WCI  21
NEW RICHMOND   CLOUDY    25  14  63 S7        30.24S WCI  17
OSCEOLA        CLOUDY    27  16  63 S9        30.26F WCI  18
$$

WIZ003>005-009-010-017-018-052200-
NORTH CENTRAL WISCONSIN

CITY           SKY/WX    TMP DP  RH WIND       PRES   REMARKS
MANITOWISH WTR CLOUDY    24   8  48 SW10      30.18F WCI  14
ARBOR VITAE    SUNNY     27  10  49 SW7       30.19F WCI  19
WOODRUFF       SUNNY     27  10  49 SW7       30.19F WCI  19
RHINELANDER    SUNNY     26   7  44 W8        30.21S WCI  18
EAGLE RIVER    CLOUDY    25   7  47 W8        30.18F WCI  16
LAND O LAKES   CLOUDY    25   6  45 SW6       30.19S WCI  18
PHILLIPS       CLOUDY    24   9  53 SW8       30.20F WCI  15
TOMAHAWK       SUNNY     27   7  42 SW3       30.22S
MEDFORD        CLOUDY    21  13  70 S7        30.24R WCI  12
MERRILL        PTSUNNY   25  10  54 SW7       30.25S WCI  17
$$

WIZ029-030-035-036-043>047-052200-
CENTRAL WISCONSIN

CITY           SKY/WX    TMP DP  RH WIND       PRES   REMARKS
WAUSAU         MOSUNNY   27  11  51 SW5       30.24S WCI  22
MOSINEE        SUNNY     25  14  63 SW6       30.27F WCI  18
MARSHFIELD     SUNNY     24  12  60 NW5       30.25F WCI  18
STEVENS POINT  SUNNY     26  13  57 W6        30.28S WCI  19
WAUPACA        SUNNY     30  16  54 SW6       30.30S WCI  24
WAUTOMA        SUNNY     30  16  56 CALM      30.31S
WISC RAPIDS    SUNNY     26  15  63 SW7       30.30S WCI  18
CAMP DOUGLAS   CLOUDY    27  18  69 SW6       30.30S WCI  20
$$

WIZ011>013-019>022-031-037>040-048>050-052200-
NORTHEAST WISCONSIN

CITY           SKY/WX    TMP DP  RH WIND       PRES   REMARKS
ANTIGO         SUNNY     22  10  58 S5        30.22F WCI  16
SHAWANO        SUNNY     31  12  45 SW6       30.29S WCI  25
OCONTO         SUNNY     26  14  60 SW5       30.29S WCI  21
STURGEON BAY   SUNNY     23  10  58 W6        30.31S WCI  16
GREEN BAY      SUNNY     26  14  60 SW7       30.30S WCI  18
MANITOWOC      SUNNY     28  16  60 W8        30.32S WCI  20
APPLETON       MOSUNNY   28  14  54 SW7       30.27F WCI  21
CLINTONVILLE   SUNNY     30  14  51 SW5       30.29S WCI  25
OSHKOSH        CLOUDY    26  16  65 SW5       30.31S WCI  20
$$

WIZ032>034-041-042-053>061-052200-
SOUTHWEST WISCONSIN

CITY           SKY/WX    TMP DP  RH WIND       PRES   REMARKS
LA CROSSE      CLOUDY    24  14  65 S6        30.33S WCI  17
SPARTA         CLOUDY    27  16  63 SW3       30.32S
VIROQUA        CLOUDY    25  15  67 SW7       30.30R WCI  17
BOSCOBEL       CLOUDY    30  17  58 SW6       30.34S WCI  24
PRAIRIE DU CHI CLOUDY    28  13  55 SW7       30.34F WCI  20
PLATTEVILLE    CLOUDY    28  20  70 SW6       30.33S WCI  22
$$

WIZ056-057-062-063-064-067-068-052200-
SOUTH CENTRAL WISCONSIN

CITY           SKY/WX    TMP DP  RH WIND       PRES   REMARKS
REEDSBURG      CLOUDY    28  17  66 SW5       30.31S WCI  22
BARABOO/DELLS  CLOUDY    28  15  59 SW5       30.30S WCI  23
LONE ROCK      CLOUDY    29  17  61 SW5       30.34S WCI  24
MINERAL POINT  CLOUDY    30  19  64 SW6       30.32S WCI  24
MADISON        CLOUDY    29  15  56 CALM      30.33R
MIDDLETON      CLOUDY    32  19  58 W6        30.33R WCI  26
WATERTOWN      CLOUDY    28  17  61 W5        30.32S WCI  23
MONROE         CLOUDY    30  21  69 W7        30.32R WCI  23
JANESVILLE     SUNNY     32  19  59 W8        30.33S WCI  25
$$

WIZ051-052-058>065-066-070>072-052200-
SOUTHEAST WISCONSIN

CITY           SKY/WX    TMP DP  RH WIND       PRES   REMARKS
MILWAUKEE      PTSUNNY   31  14  49 W8        30.32S WCI  23
WAUKESHA       SUNNY     27  16  63 NW9       30.32S WCI  17
MILWAUKEE/TIMM SUNNY     30  12  47 NW9       30.32S WCI  22
RACINE         SUNNY     32  15  49 W7        30.33S WCI  26
BURLINGTON     SUNNY     29  15  54 W7        30.33R WCI  22
KENOSHA        SUNNY     31  19  61 NW9       30.33R WCI  23
FOND DU LAC    CLOUDY    26  15  63 SW7       30.32S WCI  18
SHEBOYGAN      SUNNY     26  13  57 NW8       30.31S WCI  18
WEST BEND      MOSUNNY   28  14  54 CALM      30.31R
JUNEAU         CLOUDY    25  16  68 SW7       30.33R WCI  17
$$

LSZ147-162-052200-
LAKE SUPERIOR

STATION/POSITION TIME  TEMP    WIND        PRES    WAVE
                       AIR SEA DIR/SP/G            HT/PER
                 (UTC) (F)     (DEG/KT/KT) (MB)    (FT/S)
DEVILS ISLAND    2100   25     190/  8/ 11 1023.2F
SAXON HARBOR     2040   30                 1022.4F
$$

LMZ867-665-643>646-052200-
LAKE MICHIGAN

STATION/POSITION TIME  TEMP    WIND        PRES    WAVE
                       AIR SEA DIR/SP/G            HT/PER
                 (UTC) (F)     (DEG/KT/KT) (MB)    (FT/S)
CHAMBERS ISLAND  2000   25     210/  7/ 11 1025.7S
ALGOMA LAKESHORE 2011          280/  8/ 10   N/A
KEWAUNEE LAKESHO 2000   25     280/  5/ 11 1025.4F
SHEBOYGAN LAKESH 2100   26     270/  7/  9 1027.8R
PORT WASHINGTON  2000   30     300/  8/ 12 1027.1F
MILWAUKEE LAKESH 2110   31     300/  6/ 10   N/A
KENOSHA   LAKESH 2100   31     290/  9/ 11 1027.1R
$$

TC  - TEMPERATURE IN CELSIUS
VSB - VISIBILITY IN STATUTE MILES
WCI - WIND CHILL INDEX
HX  - HEAT INDEX





USA.gov is the U.S. government's official web portal to all federal, state and local government web resources and services.